K1ABC Weather Reports


time (UTC)temp
C
wind
direction
speed
KPH
gust
KPH
rain 1hr
cm
rain 24hr
cm
rain mn
cm
humidity
%
barometer
mb
20260507213742 18 351 3.2 9.7 0.00 0.25 0.00 28 1004.7
20260507213541 18 277 3.2 16.1 0.00 0.25 0.00 29 1004.7
20260507213338 18 291 3.2 16.1 0.00 0.25 0.00 32 1004.7
20260507213136 18 319 3.2 16.1 0.00 0.25 0.00 29 1004.7
20260507212937 18 259 1.6 16.1 0.00 0.25 0.00 28 1004.7
20260507212735 18 257 1.6 16.1 0.00 0.28 0.00 30 1004.7
20260507212530 18 321 3.2 16.1 0.00 0.28 0.00 28 1004.7
20260507212331 18 176 3.2 16.1 0.00 0.28 0.00 30 1004.7
20260507212132 18 286 3.2 16.1 0.00 0.28 0.00 28 1004.7
20260507211811 18 306 3.2 16.1 0.00 0.28 0.00 28 1004.7
20260507211449 18 257 3.2 9.7 0.00 0.28 0.00 29 1004.7
20260507211240 18 41 3.2 11.3 0.00 0.30 0.00 29 1004.7
20260507211031 18 251 3.2 11.3 0.00 0.30 0.00 28 1004.7
20260507210821 18 267 3.2 11.3 0.00 0.30 0.00 31 1004.7
20260507210456 18 234 3.2 11.3 0.00 0.33 0.00 29 1004.7
20260507210255 18 312 3.2 17.7 0.00 0.33 0.00 28 1004.7
20260507210053 18 321 3.2 17.7 0.00 0.33 0.00 28 1004.7
20260507205847 18 277 3.2 17.7 0.00 0.33 0.00 28 1004.6
20260507205533 18 195 3.2 17.7 0.00 0.33 0.00 29 1004.7
20260507205333 18 9 3.2 20.9 0.00 0.33 0.00 28 1004.7
20260507205126 18 78 3.2 20.9 0.00 0.33 0.00 30 1004.7
20260507204916 18 263 3.2 20.9 0.00 0.36 0.00 29 1004.7
20260507204709 18 211 1.6 20.9 0.00 0.36 0.00 29 1004.7
20260507204459 18 319 3.2 20.9 0.00 0.36 0.00 29 1004.6
20260507204257 18 257 4.8 20.9 0.00 0.36 0.00 31 1004.7
20260507204050 18 262 4.8 20.9 0.00 0.36 0.00 28 1004.7
20260507203844 18 267 4.8 20.9 0.00 0.38 0.00 29 1004.7
20260507203638 18 243 6.4 20.9 0.00 0.38 0.00 31 1004.7
20260507203436 18 49 4.8 20.9 0.00 0.38 0.00 31 1004.7
20260507203225 18 261 4.8 17.7 0.00 0.38 0.00 30 1004.5
20260507203023 18 261 4.8 17.7 0.00 0.41 0.00 31 1004.6
20260507202815 19 264 3.2 17.7 0.00 0.41 0.00 30 1004.6
20260507202609 19 309 1.6 17.7 0.00 0.41 0.00 28 1004.5
20260507202406 19 265 1.6 14.5 0.00 0.43 0.00 30 1004.5
20260507202201 18 311 1.6 14.5 0.00 0.43 0.00 28 1004.6
20260507202002 18 254 3.2 14.5 0.00 0.43 0.00 30 1004.5
20260507201759 18 238 3.2 17.7 0.00 0.46 0.00 29 1004.5
20260507201559 18 130 4.8 17.7 0.00 0.48 0.00 29 1004.6
20260507201234 18 355 6.4 17.7 0.00 0.48 0.00 30 1004.6
20260507201024 18 306 6.4 17.7 0.00 0.48 0.00 30 1004.6
20260507200702 19 290 4.8 17.7 0.00 0.48 0.00 28 1004.6
20260507200458 19 355 4.8 17.7 0.00 0.48 0.00 28 1004.6
20260507200252 19 16 3.2 17.7 0.00 0.48 0.00 30 1004.7
20260507200044 18 346 3.2 17.7 0.00 0.48 0.00 30 1004.7
20260507195836 18 11 3.2 17.7 0.00 0.51 0.00 29 1004.7
20260507195633 18 304 3.2 14.5 0.00 0.51 0.00 29 1004.8
20260507195429 18 355 3.2 14.5 0.00 0.51 0.00 31 1004.6
20260507195220 18 178 4.8 14.5 0.00 0.51 0.00 30 1004.7
20260507194902 18 295 4.8 14.5 0.00 0.53 0.00 31 1004.7
20260507194655 18 339 4.8 14.5 0.00 0.53 0.00 32 1004.7
20260507194454 18 82 4.8 14.5 0.00 0.53 0.00 30 1004.8
20260507194247 18 292 4.8 14.5 0.00 0.53 0.00 30 1004.8
20260507194039 18 254 4.8 17.7 0.00 0.53 0.00 31 1004.7
20260507193838 18 329 4.8 17.7 0.00 0.53 0.00 30 1004.7
20260507193638 18 223 4.8 17.7 0.00 0.56 0.00 32 1004.8
20260507193320 18 257 4.8 17.7 0.00 0.56 0.00 33 1004.8
20260507193116 18 229 3.2 17.7 0.00 0.56 0.00 30 1004.9
20260507192756 18 301 3.2 17.7 0.00 0.58 0.00 30 1005.0
20260507192556 18 28 3.2 17.7 0.00 0.58 0.00 31 1005.0
20260507192357 18 42 4.8 17.7 0.00 0.58 0.00 34 1005.0
20260507192151 17 198 4.8 17.7 0.00 0.58 0.00 31 1004.9
20260507191951 17 226 4.8 17.7 0.00 0.58 0.00 35 1004.9
20260507191742 18 257 6.4 17.7 0.00 0.58 0.00 30 1005.0
20260507191539 18 235 6.4 17.7 0.00 0.58 0.00 32 1005.1
20260507191333 18 242 4.8 17.7 0.00 0.61 0.00 34 1004.9
20260507191128 18 276 4.8 22.5 0.00 0.61 0.00 30 1005.1
20260507190808 18 250 4.8 22.5 0.00 0.61 0.00 31 1005.1
20260507190606 18 209 4.8 22.5 0.00 0.61 0.00 34 1005.0
20260507190252 18 246 6.4 22.5 0.00 0.61 0.00 29 1005.0
20260507190046 18 244 6.4 22.5 0.00 0.61 0.00 33 1005.2
20260507185836 18 248 4.8 22.5 0.00 0.61 0.00 33 1005.1
20260507185626 18 262 4.8 22.5 0.00 0.61 0.00 29 1005.1
20260507185416 18 303 4.8 22.5 0.00 0.61 0.00 31 1005.3
20260507185215 18 214 3.2 22.5 0.00 0.61 0.00 33 1005.2
20260507185006 18 5 3.2 17.7 0.00 0.61 0.00 31 1005.2
20260507184800 18 240 3.2 17.7 0.00 0.61 0.00 31 1005.2
20260507184554 18 301 3.2 17.7 0.00 0.61 0.00 33 1005.2
20260507184349 18 318 4.8 17.7 0.00 0.61 0.00 31 1005.2
20260507184146 18 275 4.8 17.7 0.00 0.61 0.00 31 1005.1
20260507183942 18 336 4.8 16.1 0.00 0.61 0.00 31 1005.2
20260507183739 18 223 4.8 16.1 0.00 0.61 0.00 31 1005.3
20260507183417 18 9 4.8 16.1 0.00 0.61 0.00 30 1005.3
20260507183051 18 311 4.8 14.5 0.00 0.61 0.00 31 1005.2
20260507182847 18 293 4.8 29.0 0.00 0.61 0.00 33 1005.2
20260507182647 18 261 4.8 29.0 0.00 0.61 0.00 34 1005.2
20260507182437 18 289 4.8 29.0 0.00 0.61 0.00 32 1005.3
20260507182228 18 237 4.8 29.0 0.00 0.61 0.00 32 1005.2
20260507182018 18 198 4.8 29.0 0.00 0.61 0.00 34 1005.2
20260507181817 18 218 6.4 29.0 0.00 0.61 0.00 34 1005.2
20260507181611 18 306 4.8 29.0 0.00 0.61 0.00 31 1005.3
20260507181246 18 321 6.4 29.0 0.00 0.61 0.00 30 1005.3
20260507181035 18 5 4.8 29.0 0.00 0.61 0.00 31 1005.3
20260507180714 18 340 3.2 22.5 0.00 0.61 0.00 30 1005.4
20260507180508 18 136 4.8 22.5 0.00 0.61 0.00 34 1005.4
20260507180300 18 30 4.8 22.5 0.00 0.61 0.00 33 1005.4
20260507180053 18 178 4.8 22.5 0.00 0.61 0.00 32 1005.4
20260507175847 17 215 6.4 22.5 0.00 0.61 0.00 32 1005.4
20260507175647 17 344 6.4 22.5 0.00 0.61 0.00 34 1005.3
20260507175439 17 271 6.4 22.5 0.00 0.61 0.00 33 1005.4
20260507175234 17 22 6.4 22.5 0.00 0.61 0.00 36 1005.4
20260507175032 17 207 4.8 16.1 0.00 0.61 0.00 35 1005.3
20260507174823 18 287 4.8 16.1 0.00 0.61 0.00 34 1005.3
20260507174508 17 355 4.8 16.1 0.00 0.61 0.00 35 1005.3
20260507174308 18 257 4.8 16.1 0.00 0.61 0.00 33 1005.2
20260507173945 18 246 4.8 16.1 0.00 0.61 0.00 33 1005.2
20260507173738 18 228 4.8 19.3 0.00 0.61 0.00 35 1005.2
20260507173528 18 173 4.8 19.3 0.00 0.61 0.00 35 1005.3
20260507173328 18 252 3.2 19.3 0.00 0.61 0.00 35 1005.3
20260507173128 17 305 4.8 19.3 0.00 0.61 0.00 38 1005.3
20260507172926 17 228 6.4 19.3 0.00 0.61 0.00 35 1005.4
20260507172720 17 234 6.4 19.3 0.00 0.61 0.00 35 1005.3
20260507172516 17 198 6.4 19.3 0.00 0.61 0.00 37 1005.3
20260507172308 17 31 4.8 19.3 0.00 0.61 0.00 33 1005.5
20260507171951 17 292 4.8 19.3 0.00 0.61 0.00 36 1005.6
20260507171744 17 245 4.8 16.1 0.00 0.61 0.00 32 1005.4
20260507171541 17 196 4.8 16.1 0.00 0.61 0.00 36 1005.5
20260507171217 17 178 4.8 19.3 0.00 0.61 0.00 35 1005.5
20260507171018 17 302 4.8 19.3 0.00 0.61 0.00 33 1005.5
20260507170807 17 311 4.8 19.3 0.00 0.61 0.00 36 1005.6
20260507170603 17 295 4.8 19.3 0.00 0.61 0.00 35 1005.6
20260507170404 17 267 4.8 19.3 0.00 0.61 0.00 39 1005.6
20260507170156 17 286 4.8 19.3 0.00 0.61 0.00 39 1005.6
20260507165840 17 229 4.8 19.3 0.00 0.61 0.00 47 1005.7
20260507165634 16 279 4.8 19.3 0.00 0.61 0.00 42 1005.8
20260507165427 16 321 4.8 19.3 0.00 0.61 0.00 44 1005.8
20260507165222 16 188 4.8 14.5 0.00 0.61 0.00 45 1005.7
20260507165018 16 309 4.8 14.5 0.00 0.61 0.00 45 1005.8
20260507164808 16 226 4.8 14.5 0.00 0.61 0.00 48 1005.8
20260507164600 16 313 4.8 14.5 0.00 0.61 0.00 45 1005.7
20260507164353 16 265 4.8 14.5 0.00 0.61 0.00 45 1005.7
20260507164145 16 76 3.2 11.3 0.00 0.61 0.00 50 1005.7
20260507163940 16 5 3.2 20.9 0.00 0.61 0.00 50 1005.8
20260507163616 15 202 3.2 20.9 0.00 0.61 0.00 52 1006.0
20260507163253 16 204 3.2 20.9 0.00 0.61 0.00 51 1006.0
20260507163054 16 174 3.2 20.9 0.00 0.61 0.00 51 1006.0
20260507162854 16 337 3.2 20.9 0.00 0.61 0.00 51 1006.0
20260507162646 16 267 3.2 20.9 0.00 0.61 0.00 52 1005.9
20260507162442 16 273 3.2 20.9 0.00 0.61 0.00 52 1005.9
20260507162120 16 274 4.8 20.9 0.00 0.61 0.00 51 1006.0
20260507161911 16 302 4.8 20.9 0.00 0.61 0.00 54 1006.0
20260507161701 16 152 3.2 14.5 0.00 0.61 0.00 52 1006.0
20260507161458 16 103 3.2 14.5 0.00 0.61 0.00 51 1006.0
20260507161251 16 305 3.2 14.5 0.00 0.61 0.00 51 1006.0
20260507161042 16 227 3.2 14.5 0.00 0.61 0.00 51 1006.0
20260507160839 16 257 3.2 11.3 0.00 0.61 0.00 51 1006.2
20260507160517 16 236 3.2 11.3 0.00 0.61 0.00 53 1006.1
20260507160316 16 196 3.2 11.3 0.00 0.61 0.00 54 1006.1
20260507160113 16 269 3.2 11.3 0.00 0.61 0.00 51 1006.2
20260507155912 16 212 3.2 12.9 0.00 0.61 0.00 50 1006.1
20260507155707 16 321 3.2 12.9 0.00 0.61 0.00 50 1006.2
20260507155505 16 296 3.2 12.9 0.00 0.61 0.00 51 1006.2
20260507155305 16 298 3.2 12.9 0.00 0.61 0.00 50 1006.3
20260507154940 16 45 4.8 17.7 0.00 0.61 0.00 51 1006.4
20260507154617 16 346 4.8 17.7 0.00 0.61 0.00 51 1006.4
20260507154413 15 209 4.8 17.7 0.00 0.61 0.00 53 1006.5
20260507154203 15 239 4.8 17.7 0.00 0.61 0.00 52 1006.5
20260507153959 15 228 4.8 17.7 0.00 0.61 0.00 52 1006.5
20260507153750 15 265 4.8 17.7 0.00 0.61 0.00 52 1006.5
20260507153543 15 274 4.8 17.7 0.00 0.61 0.00 55 1006.6
20260507153339 15 294 4.8 17.7 0.00 0.61 0.00 51 1006.6
20260507153018 15 11 3.2 11.3 0.00 0.61 0.00 52 1006.6
20260507152652 15 207 1.6 19.3 0.00 0.61 0.00 53 1006.6
20260507152334 15 257 1.6 19.3 0.00 0.61 0.00 52 1006.7
20260507152134 15 238 1.6 19.3 0.00 0.61 0.00 50 1006.7
20260507151924 15 215 1.6 19.3 0.00 0.61 0.00 52 1006.7
20260507151723 15 267 3.2 19.3 0.00 0.61 0.00 56 1006.7
20260507151357 15 175 4.8 19.3 0.00 0.61 0.00 52 1006.8
20260507151148 16 241 4.8 19.3 0.00 0.61 0.00 53 1006.8
20260507150949 16 175 4.8 19.3 0.00 0.61 0.00 48 1006.9
20260507150739 16 30 4.8 17.7 0.00 0.61 0.00 51 1006.9
20260507150538 16 303 4.8 17.7 0.00 0.61 0.00 52 1006.9
20260507150338 16 13 6.4 17.7 0.00 0.61 0.00 50 1006.9
20260507150130 16 280 6.4 16.1 0.00 0.61 0.00 51 1006.8
20260507145925 16 292 6.4 16.1 0.00 0.61 0.00 54 1006.9
20260507145724 16 263 6.4 16.1 0.00 0.61 0.00 51 1006.9
20260507145522 16 254 6.4 16.1 0.00 0.61 0.00 51 1007.0
20260507145320 16 300 4.8 16.1 0.00 0.61 0.00 50 1007.0
20260507145117 16 235 4.8 16.1 0.00 0.61 0.00 50 1007.0
20260507144914 16 233 3.2 14.5 0.00 0.61 0.00 52 1006.9
20260507144710 16 216 4.8 14.5 0.00 0.61 0.00 55 1006.9
20260507144347 16 287 4.8 14.5 0.00 0.61 0.00 51 1006.8
20260507144137 15 25 6.4 14.5 0.00 0.61 0.00 55 1006.9
20260507143815 15 205 4.8 14.5 0.00 0.61 0.00 55 1006.8
20260507143609 15 254 4.8 14.5 0.00 0.61 0.00 54 1006.9
20260507143401 15 227 3.2 14.5 0.00 0.61 0.00 52 1006.8
20260507143202 15 328 3.2 14.5 0.00 0.61 0.00 50 1006.8
20260507142952 15 227 3.2 14.5 0.00 0.61 0.00 55 1006.7
20260507142742 15 240 3.2 14.5 0.00 0.61 0.00 55 1006.8
20260507142426 15 221 3.2 14.5 0.00 0.61 0.00 52 1006.8
20260507142215 15 239 4.8 14.5 0.00 0.61 0.00 52 1006.8
20260507142005 16 258 3.2 14.5 0.00 0.61 0.00 54 1006.7
20260507141800 16 275 3.2 9.7 0.00 0.61 0.00 53 1006.6
20260507141436 16 261 3.2 9.7 0.00 0.61 0.00 52 1006.7
20260507141233 16 307 3.2 9.7 0.00 0.61 0.00 52 1006.7
20260507141027 16 60 3.2 9.7 0.00 0.61 0.00 53 1006.7
20260507140823 15 47 3.2 9.7 0.00 0.61 0.00 54 1006.7
20260507140613 15 14 3.2 9.7 0.00 0.61 0.00 50 1006.7
20260507140403 15 209 1.6 14.5 0.00 0.61 0.00 51 1006.7
20260507140157 15 296 1.6 14.5 0.00 0.61 0.00 52 1006.8
20260507135949 15 355 1.6 14.5 0.00 0.61 0.00 54 1006.8
20260507135741 15 50 1.6 14.5 0.00 0.61 0.00 53 1006.8
20260507135541 15 262 1.6 14.5 0.00 0.61 0.00 52 1006.7
20260507135334 15 44 3.2 14.5 0.00 0.61 0.00 58 1006.7
20260507135009 15 201 3.2 14.5 0.00 0.61 0.00 56 1006.7
20260507134803 15 80 3.2 14.5 0.00 0.61 0.00 53 1006.7
20260507134556 15 26 1.6 12.9 0.00 0.61 0.00 53 1006.8
20260507134233 14 55 1.6 4.8 0.00 0.61 0.00 58 1006.8
20260507134033 14 65 1.6 4.8 0.00 0.61 0.00 57 1006.9
20260507133828 14 115 1.6 4.8 0.00 0.61 0.00 58 1006.9
20260507133618 14 85 1.6 11.3 0.00 0.61 0.00 58 1007.0
20260507133415 14 242 3.2 11.3 0.00 0.61 0.00 58 1007.0
20260507133209 14 214 1.6 11.3 0.00 0.61 0.00 63 1007.1
20260507132850 14 214 1.6 11.3 0.00 0.61 0.00 59 1007.2
20260507132643 13 28 1.6 11.3 0.00 0.61 0.00 59 1007.2
20260507132434 13 22 1.6 11.3 0.00 0.61 0.00 61 1007.2
20260507132110 13 5 1.6 11.3 0.00 0.61 0.00 62 1007.2
20260507131906 13 350 1.6 11.3 0.00 0.61 0.00 63 1007.3
20260507131659 13 140 1.6 11.3 0.00 0.61 0.00 60 1007.3
20260507131457 13 285 1.6 11.3 0.00 0.61 0.00 60 1007.3
20260507131255 13 157 3.2 11.3 0.00 0.61 0.00 61 1007.3
20260507130939 13 291 3.2 11.3 0.00 0.61 0.00 64 1007.3
20260507130736 12 10 1.6 9.7 0.00 0.61 0.00 65 1007.3
20260507130530 12 228 3.2 9.7 0.00 0.61 0.00 65 1007.3
20260507130330 12 228 3.2 9.7 0.00 0.61 0.00 62 1007.4
20260507130124 12 23 1.6 9.7 0.00 0.61 0.00 65 1007.4
20260507125916 12 193 1.6 9.7 0.00 0.61 0.00 65 1007.4
20260507125710 12 300 1.6 9.7 0.00 0.61 0.00 63 1007.4
20260507125503 12 236 1.6 9.7 0.00 0.61 0.00 65 1007.3
20260507125253 12 270 1.6 11.3 0.00 0.61 0.00 71 1007.4
20260507124933 12 262 1.6 11.3 0.00 0.61 0.00 67 1007.4
20260507124730 12 321 1.6 11.3 0.00 0.61 0.00 67 1007.4
20260507124527 12 303 1.6 11.3 0.00 0.61 0.00 69 1007.5
20260507124324 12 294 1.6 11.3 0.00 0.61 0.00 70 1007.4
20260507124117 12 209 1.6 11.3 0.00 0.61 0.00 71 1007.5
20260507123913 12 209 1.6 11.3 0.00 0.61 0.00 74 1007.5
20260507123555 12 209 1.6 11.3 0.00 0.61 0.00 73 1007.5
20260507123350 11 0 1.6 11.3 0.00 0.61 0.00 73 1007.5
20260507123030 11 296 1.6 6.4 0.00 0.61 0.00 73 1007.4
20260507122706 11 315 1.6 6.4 0.00 0.61 0.00 73 1007.5
20260507122500 11 227 1.6 6.4 0.00 0.61 0.00 75 1007.6
20260507122256 11 227 1.6 6.4 0.00 0.61 0.00 75 1007.6
20260507122057 11 202 1.6 6.4 0.00 0.61 0.00 74 1007.6
20260507121847 11 202 1.6 6.4 0.00 0.61 0.00 74 1007.6
20260507121641 11 304 1.6 4.8 0.00 0.61 0.00 76 1007.5
20260507121442 11 236 1.6 4.8 0.00 0.61 0.00 75 1007.6
20260507121120 10 225 1.6 4.8 0.00 0.61 0.00 77 1007.5
20260507120915 10 288 1.6 16.1 0.00 0.61 0.00 78 1007.5
20260507120716 10 40 0.0 16.1 0.00 0.61 0.00 79 1007.6
20260507120506 10 199 1.6 16.1 0.00 0.61 0.00 79 1007.6
20260507120306 10 199 1.6 16.1 0.00 0.61 0.00 78 1007.5
20260507120104 10 255 1.6 16.1 0.00 0.61 0.00 78 1007.4
20260507115746 10 275 1.6 16.1 0.00 0.61 0.00 79 1007.5
20260507115544 10 336 1.6 16.1 0.00 0.61 0.00 78 1007.5
20260507115339 10 342 1.6 16.1 0.00 0.61 0.00 80 1007.6
20260507115021 10 142 0.0 6.4 0.00 0.61 0.00 83 1007.5
20260507114705 9 264 0.0 6.4 0.00 0.61 0.00 82 1007.4
20260507114456 9 242 0.0 6.4 0.00 0.61 0.00 84 1007.4
20260507114249 9 329 0.0 4.8 0.00 0.61 0.00 84 1007.4
20260507114049 9 329 0.0 4.8 0.00 0.61 0.00 83 1007.2
20260507113846 9 57 0.0 4.8 0.00 0.61 0.00 83 1007.2
20260507113645 9 273 0.0 4.8 0.00 0.61 0.00 83 1007.2
20260507113442 9 310 1.6 6.4 0.00 0.61 0.00 83 1007.1
20260507113233 9 59 1.6 6.4 0.00 0.61 0.00 83 1007.2
20260507113032 9 86 1.6 6.4 0.00 0.61 0.00 82 1007.1
20260507112825 9 331 0.0 6.4 0.00 0.61 0.00 84 1007.1
20260507112500 9 303 0.0 6.4 0.00 0.61 0.00 84 1007.2
20260507112257 8 336 0.0 6.4 0.00 0.61 0.00 83 1007.2
20260507112051 8 277 0.0 6.4 0.00 0.61 0.00 84 1007.3
20260507111731 8 277 0.0 6.4 0.00 0.61 0.00 84 1007.4
20260507111525 8 355 0.0 0.0 0.00 0.61 0.00 85 1007.5
20260507111208 8 302 0.0 4.8 0.00 0.61 0.00 85 1007.5
20260507111004 8 256 0.0 3.2 0.00 0.61 0.00 85 1007.5
20260507110756 8 259 0.0 3.2 0.00 0.61 0.00 86 1007.4
20260507110436 8 355 0.0 6.4 0.00 0.61 0.00 85 1007.1
20260507110228 8 355 0.0 6.4 0.00 0.61 0.00 84 1007.2
20260507110020 8 276 0.0 3.2 0.00 0.61 0.00 85 1007.4
20260507105815 8 13 0.0 6.4 0.00 0.61 0.00 85 1007.2
20260507105614 8 355 0.0 6.4 0.00 0.61 0.00 85 1006.9
20260507105252 8 346 0.0 6.4 0.00 0.61 0.00 86 1007.0
20260507104936 8 324 0.0 3.2 0.00 0.61 0.00 86 1007.1
20260507104734 8 355 0.0 3.2 0.00 0.61 0.00 86 1006.9
20260507104418 8 355 0.0 3.2 0.00 0.61 0.00 86 1006.9
20260507104219 8 355 0.0 3.2 0.00 0.61 0.00 86 1006.9
20260507104014 8 17 0.0 0.0 0.00 0.61 0.00 87 1006.9
20260507103806 8 17 0.0 0.0 0.00 0.61 0.00 86 1006.9
20260507103559 8 17 0.0 3.2 0.00 0.61 0.00 86 1006.8
20260507103349 8 5 0.0 0.0 0.00 0.61 0.00 86 1006.8
20260507103139 8 5 0.0 6.4 0.00 0.61 0.00 86 1006.9
20260507102928 8 9 0.0 6.4 0.00 0.61 0.00 86 1006.8
20260507102722 8 5 0.0 3.2 0.00 0.61 0.00 88 1006.8
20260507102404 8 171 0.0 3.2 0.00 0.61 0.00 88 1007.0
20260507102200 8 298 0.0 3.2 0.00 0.61 0.00 87 1007.0
20260507101956 8 20 1.6 6.4 0.00 0.61 0.00 87 1006.9
20260507101755 8 5 0.0 6.4 0.00 0.61 0.00 87 1007.0
20260507101431 8 26 0.0 6.4 0.00 0.61 0.00 88 1007.0
20260507101224 8 296 0.0 6.4 0.00 0.61 0.00 88 1007.0
20260507101015 8 338 0.0 1.6 0.00 0.61 0.00 88 1006.9
20260507100652 8 346 0.0 0.0 0.00 0.61 0.00 88 1006.8
20260507100453 8 345 0.0 4.8 0.00 0.61 0.00 88 1006.9
20260507100251 8 313 0.0 4.8 0.00 0.61 0.00 89 1007.0
20260507100046 8 325 0.0 4.8 0.00 0.61 0.00 89 1007.3
20260507095841 8 281 0.0 4.8 0.00 0.61 0.00 89 1007.0
20260507095523 8 309 0.0 4.8 0.00 0.61 0.00 88 1006.8
20260507095324 8 312 0.0 4.8 0.00 0.61 0.00 89 1006.8
20260507095121 8 35 0.0 3.2 0.00 0.61 0.00 89 1006.8
20260507094922 8 9 0.0 3.2 0.00 0.61 0.00 89 1006.8
20260507094713 8 39 0.0 3.2 0.00 0.61 0.00 89 1006.8
20260507094512 8 279 0.0 3.2 0.00 0.61 0.00 89 1007.1
20260507094150 8 279 0.0 3.2 0.00 0.61 0.00 89 1007.1
20260507093945 8 279 0.0 3.2 0.00 0.61 0.00 89 1007.0
20260507093741 8 279 0.0 3.2 0.00 0.61 0.00 88 1006.9
20260507093536 8 302 0.0 4.8 0.00 0.61 0.00 88 1006.8
20260507093211 8 324 0.0 4.8 0.00 0.61 0.00 88 1006.8
20260507093006 8 324 1.6 4.8 0.00 0.61 0.00 89 1006.9
20260507092806 8 267 0.0 4.8 0.00 0.61 0.00 89 1006.9
20260507092559 8 61 0.0 4.8 0.00 0.61 0.00 89 1006.9
20260507092352 8 13 0.0 4.8 0.00 0.61 0.00 89 1006.9
20260507092148 8 222 0.0 4.8 0.00 0.61 0.00 89 1007.0
20260507091942 8 320 0.0 4.8 0.00 0.61 0.00 89 1007.0
20260507091621 8 322 0.0 4.8 0.00 0.61 0.00 89 1007.0
20260507091421 8 287 0.0 11.3 0.00 0.61 0.00 89 1006.8
20260507091212 8 232 0.0 11.3 0.00 0.61 0.00 89 1006.5
20260507091011 8 296 0.0 11.3 0.00 0.61 0.00 89 1006.5
20260507090808 8 248 1.6 11.3 0.00 0.61 0.00 90 1006.6
20260507090558 8 141 0.0 11.3 0.00 0.61 0.00 90 1006.7
20260507090350 8 141 0.0 11.3 0.00 0.61 0.00 90 1006.5
20260507090143 8 141 0.0 11.3 0.00 0.61 0.00 90 1006.4
20260507085937 8 271 0.0 11.3 0.00 0.61 0.00 89 1006.4
20260507085731 8 234 0.0 11.3 0.00 0.61 0.00 89 1006.5
20260507085523 8 303 0.0 3.2 0.00 0.61 0.00 89 1006.4
20260507085315 8 271 0.0 4.8 0.00 0.61 0.00 89 1006.6
20260507085115 9 268 1.6 4.8 0.00 0.61 0.00 89 1006.7
20260507084757 9 268 1.6 4.8 0.00 0.61 0.00 89 1006.6
20260507084438 9 268 0.0 4.8 0.00 0.61 0.00 89 1006.3
20260507084230 9 266 0.0 4.8 0.00 0.61 0.00 88 1006.2
20260507084022 9 222 1.6 4.8 0.00 0.61 0.00 88 1006.3
20260507083822 9 342 1.6 4.8 0.00 0.61 0.00 88 1006.3
20260507083622 9 337 0.0 4.8 0.00 0.61 0.00 88 1006.1
20260507083301 9 13 1.6 4.8 0.00 0.61 0.00 87 1006.2
20260507083054 9 261 1.6 4.8 0.00 0.61 0.00 88 1006.3
20260507082849 9 261 1.6 4.8 0.00 0.61 0.00 88 1006.4
20260507082640 9 261 1.6 4.8 0.00 0.61 0.00 87 1006.4
20260507082441 9 334 0.0 3.2 0.00 0.61 0.00 88 1006.4
20260507082231 9 241 0.0 3.2 0.00 0.61 0.00 87 1006.3
20260507082028 10 258 0.0 3.2 0.00 0.61 0.00 86 1006.3
20260507081826 10 262 0.0 4.8 0.00 0.61 0.00 86 1006.1
20260507081620 10 314 0.0 8.0 0.00 0.61 0.00 86 1006.0
20260507081410 10 69 0.0 8.0 0.00 0.61 0.00 86 1006.2
20260507081055 10 235 1.6 8.0 0.00 0.61 0.00 86 1006.2
20260507080849 10 232 1.6 8.0 0.00 0.61 0.00 86 1006.2
20260507080646 10 232 1.6 11.3 0.00 0.61 0.00 85 1006.2
20260507080439 10 264 1.6 11.3 0.00 0.61 0.00 85 1006.3
20260507080114 10 63 1.6 11.3 0.00 0.61 0.00 85 1006.4
20260507075906 10 273 1.6 11.3 0.00 0.61 0.00 85 1006.4
20260507075707 10 300 1.6 11.3 0.00 0.61 0.00 85 1006.4
20260507075459 10 259 3.2 12.9 0.00 0.61 0.00 85 1006.4
20260507075255 10 290 3.2 12.9 0.00 0.61 0.00 85 1006.4
20260507075048 10 254 3.2 12.9 0.00 0.61 0.00 84 1006.3
20260507074843 10 273 3.2 12.9 0.00 0.61 0.00 84 1006.2
20260507074638 10 321 3.2 12.9 0.00 0.61 0.00 85 1006.0
20260507074317 10 262 1.6 12.9 0.00 0.61 0.00 85 1005.9
20260507074002 10 313 3.2 12.9 0.00 0.61 0.00 85 1005.8
20260507073753 10 256 1.6 12.9 0.00 0.61 0.00 85 1006.0
20260507073548 10 309 1.6 11.3 0.00 0.61 0.00 85 1006.0
20260507073345 10 253 1.6 11.3 0.00 0.61 0.00 85 1006.0
20260507073141 10 320 1.6 11.3 0.00 0.61 0.00 86 1006.0
20260507072936 10 288 1.6 11.3 0.00 0.61 0.00 85 1005.9
20260507072727 10 211 1.6 11.3 0.00 0.61 0.00 85 1005.7
20260507072528 10 21 1.6 11.3 0.00 0.61 0.00 85 1005.8
20260507072324 10 232 1.6 11.3 0.00 0.61 0.00 85 1005.8
20260507072124 10 287 1.6 14.5 0.00 0.61 0.00 86 1005.8
20260507071924 10 288 1.6 14.5 0.00 0.61 0.00 85 1005.9
20260507071719 10 190 1.6 14.5 0.00 0.61 0.00 86 1006.0
20260507071511 10 331 3.2 14.5 0.00 0.61 0.00 86 1005.9
20260507071149 10 276 3.2 14.5 0.00 0.61 0.00 85 1006.1
20260507070828 10 233 3.2 14.5 0.00 0.61 0.00 85 1006.1
20260507070629 10 233 3.2 14.5 0.00 0.61 0.00 85 1006.0
20260507070426 10 250 3.2 14.5 0.00 0.61 0.00 85 1005.8
20260507070218 10 242 3.2 14.5 0.00 0.61 0.00 85 1005.7
20260507070016 10 214 3.2 16.1 0.00 0.61 0.00 86 1005.6
20260507065815 10 214 4.8 16.1 0.00 0.61 0.00 85 1005.7
20260507065615 10 309 3.2 16.1 0.00 0.61 0.00 85 1005.6
20260507065413 10 5 3.2 16.1 0.00 0.61 0.00 85 1005.7
20260507065204 10 207 3.2 16.1 0.00 0.61 0.00 86 1005.8
20260507065003 10 277 3.2 16.1 0.00 0.61 0.00 86 1005.9
20260507064757 10 241 3.2 16.1 0.00 0.61 0.00 86 1005.9
20260507064548 10 254 3.2 16.1 0.00 0.61 0.00 86 1005.8
20260507064340 10 263 3.2 16.1 0.00 0.61 0.00 87 1005.7
20260507064026 10 307 1.6 11.3 0.00 0.61 0.00 86 1005.5
20260507063815 10 284 1.6 11.3 0.00 0.61 0.00 86 1005.5
20260507063459 10 59 1.6 8.0 0.00 0.61 0.00 86 1005.5
20260507063259 11 131 1.6 8.0 0.00 0.61 0.00 86 1005.6
20260507063055 11 206 1.6 8.0 0.00 0.61 0.00 86 1005.6
20260507062850 11 252 1.6 8.0 0.00 0.61 0.00 86 1005.4
20260507062645 11 284 1.6 9.7 0.00 0.61 0.00 86 1005.4
20260507062441 11 290 1.6 9.7 0.00 0.61 0.00 85 1005.6
20260507062125 11 286 1.6 9.7 0.00 0.61 0.00 86 1005.6
20260507061803 11 174 1.6 14.5 0.00 0.61 0.00 85 1005.5
20260507061447 11 281 1.6 14.5 0.00 0.61 0.00 84 1005.5
20260507061248 11 227 1.6 14.5 0.00 0.61 0.00 84 1005.6
20260507061039 11 347 1.6 14.5 0.00 0.61 0.00 85 1005.6
20260507060834 11 243 1.6 14.5 0.00 0.61 0.00 84 1005.6
20260507060514 11 266 1.6 14.5 0.00 0.61 0.00 85 1005.6
20260507060307 11 273 3.2 14.5 0.00 0.61 0.00 85 1005.6
20260507060057 11 191 3.2 14.5 0.00 0.61 0.00 85 1005.6
20260507055858 11 248 3.2 14.5 0.00 0.61 0.00 84 1005.7
20260507055650 11 240 3.2 11.3 0.00 0.61 0.00 84 1005.6
20260507055452 11 236 3.2 11.3 0.00 0.61 0.00 85 1005.9
20260507055131 11 298 3.2 11.3 0.00 0.61 0.00 85 1005.9
20260507054924 11 220 3.2 8.0 0.00 0.61 0.00 85 1006.0
20260507054718 11 246 3.2 6.4 0.00 0.61 0.00 85 1006.0
20260507054400 11 298 1.6 6.4 0.00 0.61 0.00 85 1006.0
20260507054159 11 269 1.6 9.7 0.00 0.61 0.00 85 1005.9
20260507053955 11 261 1.6 9.7 0.00 0.61 0.00 86 1006.0
20260507053746 11 263 3.2 9.7 0.00 0.61 0.00 85 1005.9
20260507053544 11 289 3.2 9.7 0.00 0.61 0.00 85 1005.9
20260507053345 11 220 3.2 9.7 0.00 0.61 0.00 85 1005.8
20260507053139 11 217 3.2 9.7 0.00 0.61 0.00 86 1005.9
20260507052823 11 269 3.2 9.7 0.00 0.61 0.00 86 1006.0
20260507052616 11 267 3.2 9.7 0.00 0.61 0.00 86 1006.1
20260507052253 11 254 3.2 8.0 0.00 0.61 0.00 86 1005.9
20260507051933 11 275 3.2 8.0 0.00 0.61 0.00 86 1005.9
20260507051725 11 334 1.6 6.4 0.00 0.61 0.00 86 1005.9
20260507051526 11 281 1.6 12.9 0.00 0.61 0.00 86 1005.8
20260507051320 11 257 3.2 12.9 0.00 0.61 0.00 86 1005.7
20260507051001 11 205 3.2 12.9 0.00 0.61 0.00 86 1005.6
20260507050802 11 205 3.2 12.9 0.00 0.61 0.00 85 1005.6
20260507050603 11 265 3.2 16.1 0.00 0.61 0.00 86 1005.7
20260507050404 11 191 1.6 16.1 0.00 0.61 0.00 86 1005.8
20260507050044 11 191 3.2 16.1 0.00 0.61 0.00 86 1005.8
20260507045834 11 281 3.2 16.1 0.00 0.61 0.00 86 1005.8
20260507045630 11 225 3.2 16.1 0.00 0.61 0.00 86 1005.7
20260507045423 11 213 3.2 16.1 0.00 0.61 0.00 87 1005.7
20260507045219 12 278 3.2 16.1 0.00 0.61 0.00 86 1005.7
20260507045018 12 276 3.2 16.1 0.00 0.61 0.00 87 1005.6
20260507044815 12 272 3.2 16.1 0.00 0.61 0.00 86 1005.6
20260507044454 12 318 1.6 11.3 0.00 0.61 0.00 87 1005.6
20260507044249 12 305 1.6 11.3 0.00 0.61 0.00 87 1005.6
20260507044049 12 271 1.6 11.3 0.00 0.61 0.00 87 1005.6
20260507043734 12 257 1.6 11.3 0.00 0.61 0.00 87 1005.6
20260507043534 12 232 1.6 19.3 0.00 0.61 0.00 87 1005.7
20260507043330 12 316 1.6 19.3 0.00 0.61 0.00 86 1005.7
20260507043009 12 275 1.6 19.3 0.00 0.61 0.00 87 1005.8
20260507042651 12 260 1.6 19.3 0.00 0.61 0.00 87 1005.9
20260507042443 12 252 3.2 19.3 0.00 0.61 0.00 87 1005.9
20260507042238 12 252 3.2 19.3 0.00 0.61 0.00 86 1005.9
20260507042032 12 240 4.8 19.3 0.00 0.61 0.00 86 1005.9
20260507041828 12 290 4.8 19.3 0.00 0.61 0.00 86 1005.8
20260507041626 12 238 4.8 19.3 0.00 0.61 0.00 86 1005.8
20260507041417 13 231 3.2 16.1 0.00 0.61 0.00 87 1005.8
20260507041206 13 297 4.8 12.9 0.00 0.61 0.00 87 1005.7
20260507041001 13 192 4.8 16.1 0.00 0.61 0.00 87 1005.6
20260507040753 13 298 3.2 16.1 0.00 0.61 0.00 86 1005.6
20260507040544 13 286 3.2 16.1 0.00 0.61 0.00 87 1005.5
20260507040341 13 266 3.2 16.1 0.00 0.61 0.00 88 1005.4
20260507040138 13 271 3.2 16.1 0.00 0.61 0.00 88 1005.4
20260507035937 13 265 3.2 16.1 0.00 0.61 0.64 89 1005.4
20260507035733 13 223 3.2 16.1 0.00 0.61 0.64 89 1005.4
20260507035529 13 270 1.6 16.1 0.00 0.61 0.64 89 1005.3
20260507035321 13 335 1.6 16.1 0.00 0.61 0.64 89 1005.3
20260507035112 13 0 1.6 14.5 0.00 0.61 0.61 90 1005.3
20260507034908 13 244 1.6 14.5 0.00 0.61 0.61 90 1005.1
20260507034547 14 253 1.6 14.5 0.00 0.61 0.61 90 1005.1
20260507034341 14 323 3.2 14.5 0.00 0.61 0.61 90 1005.1
20260507034019 14 206 3.2 11.3 0.00 0.61 0.61 90 1005.0
20260507033814 14 229 3.2 11.3 0.00 0.61 0.61 91 1005.1
20260507033613 14 267 3.2 12.9 0.00 0.61 0.61 91 1005.0
20260507033407 14 326 3.2 12.9 0.00 0.61 0.61 91 1004.9
20260507033208 14 42 3.2 12.9 0.00 0.61 0.61 90 1004.8
20260507033009 14 281 3.2 12.9 0.00 0.61 0.61 90 1004.9
20260507032806 14 246 3.2 12.9 0.00 0.61 0.61 90 1004.9
20260507032556 15 144 3.2 12.9 0.00 0.61 0.61 90 1005.0
20260507032356 15 0 3.2 12.9 0.00 0.61 0.61 90 1005.0
20260507032146 15 198 3.2 12.9 0.00 0.61 0.61 90 1004.9
20260507031940 15 200 3.2 12.9 0.00 0.61 0.61 91 1004.8
20260507031738 15 224 3.2 12.9 0.00 0.61 0.61 92 1004.8
20260507031529 15 257 3.2 9.7 0.00 0.61 0.61 92 1005.0
20260507031210 15 259 3.2 9.7 0.00 0.61 0.61 92 1004.8
20260507031006 15 249 3.2 6.4 0.00 0.61 0.61 92 1004.6
20260507030756 15 248 3.2 6.4 0.00 0.61 0.61 92 1004.5
20260507030547 15 229 3.2 6.4 0.00 0.61 0.61 92 1004.5
20260507030347 15 242 3.2 6.4 0.00 0.61 0.61 92 1004.5
20260507030143 15 235 3.2 6.4 0.00 0.61 0.61 92 1004.4
20260507025934 15 235 3.2 6.4 0.00 0.61 0.61 92 1004.4
20260507025729 15 234 3.2 6.4 0.00 0.61 0.61 92 1004.4
20260507025520 15 229 3.2 6.4 0.00 0.61 0.61 92 1004.4
20260507025318 15 193 3.2 6.4 0.00 0.61 0.61 92 1004.5
20260507025108 15 224 3.2 6.4 0.00 0.61 0.61 92 1004.4
20260507024904 15 224 3.2 6.4 0.00 0.61 0.61 92 1004.4
20260507024702 15 211 3.2 4.8 0.00 0.61 0.61 92 1004.4
20260507024501 15 236 3.2 4.8 0.00 0.61 0.61 92 1004.4
20260507024302 15 220 3.2 9.7 0.00 0.61 0.61 92 1004.5
20260507024101 15 220 3.2 9.7 0.00 0.61 0.61 92 1004.4
20260507023857 15 223 3.2 9.7 0.00 0.61 0.61 92 1004.4
20260507023533 15 225 3.2 9.7 0.00 0.61 0.61 92 1004.3
20260507023213 15 207 3.2 9.7 0.00 0.61 0.61 92 1004.4
20260507023006 15 226 3.2 9.7 0.00 0.61 0.61 92 1004.5
20260507022807 15 225 3.2 9.7 0.00 0.61 0.61 92 1004.5
20260507022606 15 229 3.2 9.7 0.00 0.61 0.61 92 1004.4
20260507022407 15 240 1.6 8.0 0.00 0.61 0.61 92 1004.4
20260507022203 15 240 3.2 8.0 0.00 0.61 0.61 92 1004.4
20260507021955 15 232 3.2 8.0 0.00 0.61 0.61 92 1004.5
20260507021745 15 209 3.2 9.7 0.00 0.61 0.61 92 1004.4
20260507021543 15 231 3.2 9.7 0.00 0.61 0.61 92 1004.4
20260507021335 15 227 3.2 9.7 0.00 0.61 0.61 92 1004.4
20260507021130 15 214 3.2 9.7 0.00 0.61 0.61 92 1004.5
20260507020920 15 216 3.2 9.7 0.00 0.61 0.61 92 1004.5
20260507020710 15 220 4.8 12.9 0.00 0.61 0.61 92 1004.5
20260507020509 15 223 3.2 12.9 0.00 0.61 0.61 92 1004.5
20260507020259 15 225 3.2 12.9 0.00 0.61 0.61 92 1004.5
20260507020059 15 202 4.8 12.9 0.00 0.61 0.61 92 1004.6
20260507015853 15 205 4.8 12.9 0.00 0.61 0.61 92 1004.6
20260507015645 15 217 4.8 12.9 0.00 0.61 0.61 92 1004.6
20260507015438 15 229 4.8 12.9 0.00 0.61 0.61 92 1004.6
20260507015239 15 207 4.8 12.9 0.00 0.61 0.61 92 1004.7
20260507015038 15 227 4.8 12.9 0.00 0.61 0.61 92 1004.7
20260507014828 15 223 4.8 8.0 0.00 0.61 0.61 93 1004.7
20260507014510 15 238 3.2 8.0 0.00 0.61 0.61 93 1004.7
20260507014311 15 242 3.2 8.0 0.00 0.61 0.61 93 1004.8
20260507014103 15 210 3.2 8.0 0.00 0.61 0.61 93 1004.7
20260507013855 15 234 3.2 8.0 0.00 0.61 0.61 93 1004.8
20260507013648 15 219 3.2 8.0 0.00 0.61 0.61 93 1004.8
20260507013334 15 216 3.2 8.0 0.00 0.61 0.61 93 1004.8
20260507013127 15 221 3.2 8.0 0.00 0.61 0.61 93 1004.8
20260507012920 15 247 3.2 8.0 0.00 0.61 0.61 93 1004.7
20260507012712 15 226 3.2 8.0 0.00 0.61 0.61 93 1004.7
20260507012510 15 246 3.2 8.0 0.00 0.61 0.61 93 1004.7
20260507012310 15 221 3.2 11.3 0.00 0.61 0.61 93 1004.8
20260507012110 15 232 3.2 11.3 0.00 0.61 0.61 93 1004.8
20260507011911 15 229 3.2 11.3 0.00 0.61 0.61 93 1004.7
20260507011712 15 210 3.2 11.3 0.00 0.61 0.61 93 1004.7
20260507011348 15 210 4.8 16.1 0.00 0.61 0.61 93 1004.8
20260507011141 15 190 4.8 16.1 0.00 0.61 0.61 93 1004.8
20260507010933 15 234 3.2 16.1 0.00 0.61 0.61 93 1004.9
20260507010617 15 214 3.2 16.1 0.00 0.61 0.61 93 1004.8
20260507010413 15 222 4.8 16.1 0.00 0.61 0.61 93 1004.8
20260507010206 15 217 4.8 16.1 0.00 0.61 0.61 93 1004.9
20260507005957 15 219 4.8 16.1 0.00 0.61 0.61 93 1004.9
20260507005758 15 219 4.8 16.1 0.00 0.61 0.61 93 1004.9
20260507005551 15 217 3.2 16.1 0.00 0.61 0.61 93 1004.9
20260507005344 15 163 3.2 14.5 0.00 0.61 0.61 93 1004.9
20260507005136 15 214 3.2 11.3 0.00 0.61 0.61 93 1004.8
20260507004927 15 180 3.2 11.3 0.00 0.61 0.61 93 1004.8
20260507004612 15 246 3.2 11.3 0.00 0.61 0.61 93 1004.8
20260507004405 15 225 3.2 11.3 0.00 0.61 0.61 93 1004.8
20260507004200 15 221 3.2 11.3 0.00 0.61 0.61 93 1004.7
20260507003950 15 219 4.8 11.3 0.00 0.61 0.61 93 1004.8
20260507003746 15 233 3.2 11.3 0.00 0.61 0.61 93 1004.8
20260507003539 15 200 3.2 11.3 0.00 0.61 0.61 93 1004.8
20260507003218 15 235 3.2 9.7 0.00 0.61 0.61 93 1004.8
20260507003015 15 242 3.2 9.7 0.00 0.61 0.61 93 1004.7
20260507002816 15 250 3.2 14.5 0.00 0.61 0.61 93 1004.7
20260507002606 15 237 4.8 14.5 0.00 0.61 0.61 93 1004.7
20260507002249 15 174 4.8 14.5 0.00 0.61 0.61 93 1004.7
20260507002042 15 230 3.2 14.5 0.00 0.61 0.61 93 1004.7
20260507001836 15 235 3.2 14.5 0.00 0.61 0.61 93 1004.7
20260507001633 15 227 3.2 16.1 0.00 0.61 0.61 93 1004.8
20260507001429 15 223 3.2 16.1 0.00 0.61 0.61 93 1004.7
20260507001104 15 244 3.2 16.1 0.00 0.61 0.61 93 1004.6
20260507000857 15 248 3.2 16.1 0.00 0.61 0.61 93 1004.6
20260507000646 15 233 3.2 16.1 0.00 0.61 0.61 93 1004.6
20260507000446 15 233 4.8 16.1 0.00 0.61 0.61 93 1004.6
20260507000237 15 219 3.2 16.1 0.00 0.61 0.61 93 1004.5
20260507000026 15 216 3.2 16.1 0.10 0.61 0.61 93 1004.6
20260506235818 15 150 3.2 11.3 0.10 0.61 0.61 93 1004.5
20260506235612 15 250 3.2 11.3 0.13 0.61 0.61 93 1004.5
20260506235404 15 273 3.2 12.9 0.15 0.61 0.61 93 1004.4
20260506235049 15 240 3.2 12.9 0.15 0.61 0.61 93 1004.4
20260506234842 15 238 3.2 12.9 0.15 0.61 0.61 93 1004.4
20260506234642 15 178 3.2 12.9 0.15 0.61 0.61 93 1004.4
20260506234433 15 225 3.2 12.9 0.15 0.58 0.61 93 1004.5
20260506234227 15 222 3.2 12.9 0.20 0.58 0.58 93 1004.5
20260506234020 15 223 3.2 12.9 0.25 0.58 0.58 93 1004.5
20260506233815 15 250 3.2 12.9 0.33 0.58 0.58 93 1004.6
20260506233613 15 234 4.8 12.9 0.33 0.53 0.58 93 1004.5
20260506233258 15 233 4.8 12.9 0.10 0.53 0.53 93 1004.5
20260506233059 15 229 4.8 12.9 0.10 0.53 0.53 93 1004.5
20260506232850 15 242 4.8 16.1 0.13 0.53 0.53 93 1004.6
20260506232651 15 223 4.8 16.1 0.15 0.53 0.53 93 1004.5
20260506232446 15 223 4.8 16.1 0.15 0.53 0.53 92 1004.6
20260506232243 15 222 4.8 16.1 0.15 0.53 0.53 92 1004.6
20260506231926 15 240 4.8 19.3 0.15 0.53 0.53 92 1004.6
20260506231726 15 218 4.8 19.3 0.15 0.53 0.53 92 1004.7
20260506231526 15 177 4.8 19.3 0.00 0.48 0.51 92 1004.7
20260506231317 15 229 4.8 19.3 0.00 0.48 0.51 92 1004.8
20260506231114 15 224 4.8 19.3 0.00 0.48 0.51 92 1004.8
20260506230910 15 228 4.8 19.3 0.00 0.48 0.51 92 1004.8
20260506230710 15 167 4.8 19.3 0.00 0.48 0.48 92 1004.8
20260506230501 15 180 4.8 19.3 0.00 0.48 0.48 92 1004.7
20260506230258 15 225 4.8 19.3 0.00 0.48 0.48 92 1004.7
20260506230057 15 206 4.8 17.7 0.00 0.48 0.48 92 1004.7
20260506225741 15 238 4.8 17.7 0.00 0.48 0.48 92 1004.7
20260506225540 15 242 4.8 17.7 0.00 0.48 0.48 92 1004.7
20260506225335 15 228 4.8 17.7 0.00 0.48 0.48 92 1004.7
20260506225133 15 200 6.4 17.7 0.00 0.48 0.48 92 1004.7
20260506224928 15 225 4.8 17.7 0.10 0.46 0.46 92 1004.8
20260506224602 15 219 4.8 17.7 0.10 0.46 0.46 92 1004.8
20260506224356 15 229 4.8 17.7 0.10 0.46 0.46 92 1004.8
20260506224146 15 223 3.2 11.3 0.10 0.46 0.46 92 1004.8
20260506223826 15 239 3.2 11.3 0.10 0.46 0.46 92 1004.9
20260506223504 15 217 3.2 11.3 0.10 0.46 0.46 92 1004.9
20260506223254 15 232 3.2 11.3 0.10 0.41 0.46 92 1004.9
20260506223056 15 222 4.8 12.9 0.13 0.41 0.43 92 1004.9
20260506222741 15 240 4.8 12.9 0.15 0.41 0.43 92 1004.9
20260506222539 15 240 4.8 12.9 0.23 0.41 0.43 92 1004.9
20260506222338 15 225 4.8 12.9 0.30 0.41 0.43 92 1005.0
20260506222135 15 220 4.8 12.9 0.33 0.41 0.43 92 1005.0
20260506221925 15 220 4.8 14.5 0.33 0.41 0.43 92 1005.1
20260506221725 15 234 4.8 14.5 0.00 0.41 0.41 92 1005.1
20260506221521 15 223 4.8 14.5 0.00 0.41 0.41 92 1005.1
20260506221319 15 196 4.8 14.5 0.00 0.36 0.38 91 1005.1
20260506221115 15 234 4.8 14.5 0.00 0.36 0.38 91 1005.2
20260506220906 15 184 4.8 20.9 0.00 0.36 0.38 91 1005.2
20260506220702 15 221 3.2 20.9 0.00 0.36 0.38 91 1005.2
20260506220344 15 246 3.2 20.9 0.00 0.36 0.38 91 1005.3
20260506220141 16 224 3.2 20.9 0.00 0.36 0.38 91 1005.2
20260506215935 16 224 4.8 20.9 0.00 0.36 0.38 91 1005.1
20260506215733 16 211 4.8 20.9 0.00 0.36 0.38 91 1005.2
20260506215530 16 237 4.8 20.9 0.10 0.36 0.38 91 1005.2
20260506215331 16 226 4.8 20.9 0.13 0.36 0.38 91 1005.3
20260506215010 16 240 4.8 19.3 0.13 0.36 0.38 91 1005.3
20260506214806 16 202 4.8 19.3 0.13 0.36 0.38 91 1005.4
20260506214559 16 240 4.8 19.3 0.13 0.36 0.38 91 1005.4
20260506214354 16 197 4.8 19.3 0.13 0.36 0.38 91 1005.4
20260506214147 16 213 4.8 12.9 0.13 0.36 0.38 91 1005.4
20260506213944 16 230 4.8 11.3 0.10 0.33 0.33 91 1005.4